2647 visiteurs
Prévisions de votre ville :
Vigilance : 20 départements 3 départements Mise à jour le 22/10/2019 à 06:08 - Voir la carte

Paris Roissy CDG (95380) le 22/10/2019 à 08:30 Choisir station

9°C 93 % SO Vit. moyenne 6 kmh/h

Relevés météo quotidiens pour la station de :

UTC
S: Synop
M: Metar
Loc T°C
(°C)
Td
(°C)
HR
(%)
Vis
(km)
Néb
(octa)
Vent
(km/h)
Pression
(mb)
Précipitations
(mm)
Temps
              MOY
10 min
DIR RAF 1h MESURE VAR SUR 3h    
S 00 h 02h 25.4 18.3 65 24 - 9 13 1014.2 -0.4/3h 0.0/6h - 0.0/3h -
S 01 h 03h 24.7 18.4 68 18 - 9 15 1014.0 -0.4/3h 0.0/1h -
S 02 h 04h 24.0 18.2 70 15 - 7 11 1013.8 -0.8/3h 0.0/1h -
S 03 h 05h 23.8 18.0 70 17 - 4 9 1013.3 -0.9/3h 0.0/3h -
S 04 h 06h 23.4 17.6 70 17 - 6 9 1013.3 -0.7/3h 0.0/1h -
S 05 h 07h 23.5 17.5 69 18 - 4 7 1013.4 -0.4/3h 0.0/1h -
S 06 h 08h 24.9 17.6 64 13 - 11 15 1013.3 0.0/3h 0.0/12h - 0.0/3h - 0.0/24h -
S 07 h 09h 28.2 17.7 53 12 - 13 20 1013.1 -0.1/3h 0.0/1h -
S 08 h 10h 29.3 17.8 50 13 7/8 13 22 1012.8 -0.5/3h 0.0/1h
S 09 h 11h 32.7 18.9 44 13 - 7 11 1012.5 -0.7/3h 0.0/3h -
S 10 h 12h 34.9 18.9 39 12 - 13 26 1012.2 -0.8/3h 0.0/1h -
S 11 h 13h 37.6 18.1 32 9 - 15 26 1011.9 -0.8/3h 0.0/1h -
S 12 h 14h 39.6 14.6 23 10 - 15 30 1011.2 -1.1/3h 0.0/6h - 0.0/3h -
S 13 h 15h 40.4 13.9 21 9 - 17 37 1010.8 -1.3/3h 0.0/1h -
S 14 h 16h 41.2 13.0 19 7 - 11 20 1010.3 -1.5/3h 0.0/1h -
S 15 h 17h 41.4 12.3 18 8 - 11 20 1009.7 -1.5/3h 0.0/3h -
S 16 h 18h 41.0 12.0 18 8 - 17 37 1009.2 -1.6/3h 0.0/1h -
S 17 h 19h 40.0 14.2 22 9 - 20 31 1008.8 -1.5/3h 0.0/1h -
S 18 h 20h 38.0 15.8 27 22 - 7 15 1008.6 -1.2/3h 0.0/12h - 0.0/3h -
S 19 h 21h 35.4 16.2 32 30 - 6 11 1008.7 -0.6/3h 0.0/1h -
S 20 h 22h 34.0 15.0 32 18 6/8 9 17 1008.9 0.0/3h 0.0/1h
S 21 h 23h 31.7 14.8 36 35 - 11 31 1009.1 +0.4/3h 0.0/3h -
S 22 h 00h 28.3 15.2 45 30 8/8 19 33 1011.4 +2.6/3h 0.0/1h
S 23 h 01h 25.2 17.7 63 50 7/8 28 57 1011.3 +2.2/3h 0.0/1h
evolution des temperatures
cumul des precipitations
vent moyen et rafales
pression atmospherique

Un tiret (-) signifie que les données ne sont pas disponibles.

Passez la souris sur les pictos temps pour avoir plus de précisions. Passez les flèches sur l'icône de la direction du vent pour voir la direction précise en degrés.

Les données de l'heure en cours sont disponibles à partir de H+15 minutes.


S signifie station Synop, plus complète qu'une station Metar (M). Il y a +1h de différence entre l'heure UTC et l'heure légale en hiver et +2h en été.

Td est la mesure du point de rosée.

HR est l'humidité relative/p>

Vis est la visibilité

Néb est la nébulosité du ciel (couverture nuageuse) exprimée en octas (de 0/8 à 8/8).

Vent moy 10 min donne le vent moyen sur les 10 minutes qui précèdent le relevé.

Vent raf 1h donne la rafale maximale mesurée dans l'heure qui précède le relevé.


Les données les plus anciennes remontent à avril 2014.

Les données présentées sur cette page proviennent des stations météo officielles. Les relevés sont effectués aux normes en vigueur (anémomètre à 10m de haut, thermomètre sous abri normalisé à 2m du sol...)

Météo 60 décline toute responsabilité en cas d'absence de données, d'erreurs, de mauvaise utilisation ou interprétation et n'est pas habilité à fournir des certificats intempéries.